Rbgn^[z[y[W
メイン
   新天体発見情報
     Comet P/2022 O2 (PANSTARRS)
投稿するにはまず登録を

スレッド表示 | 古いものから 前のトピック | 次のトピック | 下へ
投稿者 スレッド
佐藤裕久
投稿日時: 2022-9-12 12:13
モデレータ
登録日: 2005-6-12
居住地: 日本
投稿: 2661
オンライン
Comet P/2022 O2 (PANSTARRS)

Yudish Ramanjooloo (ハワイ大学天文研究所)の通報によると、8月17日、HaleakalaにあるPan-
STARRS2の1.8-m Ritchey-Chretien 反射望遠鏡で得た4枚の45秒w-バンド画像から彗星を発見した。
1".4-1".5のシーイングで約2".2(半値全幅:FWHM)の拡散したコマがあるように思われ、また、
p.a. 154°に向かって長さ約2"、幅約2 "の尾がある。

彗星機能の報告は次のとおり、

OC   Date        Reporter           Coma    Tail    PA          Exposures
F52  2022-08-01  R. Weryk           0".2                        4x45s
568  2022-08-18  R. Weryk           0".2     1"      10-310     3x60s

発見位置は次のとおり、

     2022 UT             R.A. (2000) Decl.       Mag.
     Aug. 17.27310   20 41 48.16   -23 03 02.8   20.3
          17.28454   20 41 47.50   -23 03 01.4   20.2
          17.29596   20 41 46.87   -23 03 00.1   20.2
          17.30737   20 41 46.24   -23 02 58.6   20.1

MPCの楕円軌道要素、位置推算表は次のとおり、

Orbital elements:
    P/2022 O2 (PANSTARRS)                                                       
Epoch 2022 Aug. 9.0 TT = JDT 2459800.5                                          
T 2023 Jan. 7.14009 TT                                  Rudenko                 
q   1.7567411            (2000.0)            P               Q                  
n   0.06217834     Peri.   48.65407     +0.93965231     -0.33248884             
a   6.3102026      Node   330.49919     +0.24401808     +0.81653376             
e   0.7216031      Incl.    9.42644     +0.23980974     +0.47193621             
P  15.9                                                                         
From 20 observations 2022 June 9-Aug. 18, mean residual 0".2.                   
                                                                                
Ephemeris:
Date    TT    R. A. (2000) Decl.     Delta      r    Elong.  Phase   m1
2022 07 20    21 05 57.9 -23 26 04   1.5176  2.5089   163.6     6.6  20.9
...
2022 08 04    20 53 54.5 -23 22 50   1.3960  2.4075   174.0     2.5  20.5
...
2022 08 12    20 46 34.7 -23 13 22   1.3544  2.3545   167.7     5.2  20.4
...
2022 08 18    20 41 09.3 -23 01 17   1.3335  2.3155   161.4     8.0  20.3
2022 08 19    20 40 16.8 -22 58 49   1.3308  2.3090   160.3     8.5  20.3
2022 08 20    20 39 25.0 -22 56 13   1.3284  2.3026   159.2     9.0  20.2
...
2022 08 26    20 34 33.6 -22 37 47   1.3187  2.2643   152.6    11.9  20.2
...
2022 09 03    20 29 17.3 -22 05 40   1.3177  2.2144   143.9    15.6  20.1
...
2022 09 18    20 24 36.7 -20 44 00   1.3462  2.1248   128.7    21.7  19.9

(CBET 5160、MPEC 2022-Q25)

スレッド表示 | 古いものから 前のトピック | 次のトピック | トップ

投稿するにはまず登録を
 
© 1999 Tsutomu Seki.